Wind_Speed
45 50 50 50 50 50 48 45 43 42 42 41 40 39 37 36 35 34 34 34 33 32 30 29 28 27 26 25 23 22 22 23 24 24 24 23 23 26 23 23 22 20 20 18 14 10 9
42 50 49 48 49 49 50 51 48 46 45 44 43 42 41 38 37 37 36 35 34 32 31 30 28 26 25 24 24 24 24 26 27 26 23 21 23 25 23 22 22 19 18 16 13 8 7
45 46 49 49 50 49 50 50 51 50 49 47 45 43 41 41 40 37 36 34 33 31 30 29 28 26 26 25 25 26 27 28 27 25 22 20 22 24 21 21 20 18 16 14 10 4 7
44 47 50 50 50 50 51 52 53 50 50 48 46 45 42 40 41 41 39 36 35 33 29 27 28 26 26 26 27 28 28 26 25 23 19 18 21 22 20 19 20 18 16 14 10 6 7
48 47 48 51 51 50 51 52 52 53 52 50 48 46 44 42 41 40 39 38 35 32 30 29 28 29 27 27 28 28 26 24 22 20 20 18 20 22 19 19 18 17 14 13 9 8 8
53 49 47 49 51 52 50 50 50 50 49 47 46 44 42 41 39 38 38 37 35 33 32 30 28 29 29 28 27 26 23 21 21 22 22 20 20 21 19 19 18 15 14 14 10 7 11
58 53 50 48 49 51 52 51 50 49 48 46 45 43 41 41 41 40 39 38 36 34 32 31 31 32 32 28 25 21 21 21 23 24 23 22 21 22 20 20 18 14 13 11 9 8 13
62 58 54 50 47 49 50 51 51 50 49 48 46 44 42 42 42 41 41 39 37 36 34 34 32 33 30 24 20 20 21 21 22 25 26 26 25 22 17 21 19 15 14 10 9 8 13
68 63 58 54 49 47 48 50 51 50 48 48 48 46 45 43 43 42 42 42 41 39 36 35 33 29 21 19 20 20 20 20 20 21 22 21 22 22 19 19 19 16 14 13 10 7 10
73 67 64 59 54 49 47 48 48 48 48 46 47 47 45 44 42 39 37 37 39 39 35 30 26 22 18 20 21 19 20 21 18 17 17 17 22 22 18 20 17 17 14 14 12 9 7
78 72 69 65 59 55 50 46 48 46 46 45 45 44 44 43 41 36 33 32 32 31 28 25 24 22 21 20 20 20 18 18 18 20 21 22 24 22 19 18 15 17 15 13 13 13 11
82 78 73 70 66 61 55 51 47 47 45 44 43 43 42 42 40 36 33 31 30 28 25 23 23 24 20 21 21 18 18 18 18 18 19 20 22 20 19 17 16 17 17 15 15 15 15
87 84 79 76 72 67 61 56 51 49 46 44 43 42 42 41 40 38 35 33 31 27 26 23 25 25 23 21 20 18 17 16 16 16 16 18 20 21 20 14 15 17 19 19 16 10 15
90 87 84 80 78 73 68 62 57 53 50 47 46 44 41 40 39 37 35 33 31 29 27 27 26 25 23 20 19 17 17 17 17 18 19 21 23 22 21 16 14 17 17 19 20 16 13
91 90 87 85 82 79 74 68 63 59 55 50 50 47 45 43 41 39 37 36 33 32 30 28 26 26 24 21 20 20 21 22 22 24 27 26 27 24 22 19 15 18 17 18 21 19 13
95 92 89 87 85 84 79 74 69 65 60 55 53 50 47 45 44 42 40 40 36 33 32 28 25 25 24 23 25 26 26 25 26 29 30 31 30 27 26 24 19 20 20 18 20 22 18
99 95 92 89 88 87 84 78 74 71 66 61 57 54 50 49 46 45 43 42 39 36 34 29 25 28 28 29 30 31 31 31 31 29 31 31 31 28 28 24 22 22 21 20 16 22 21
98 101 97 93 91 89 87 84 80 77 73 67 63 59 55 53 50 48 45 43 41 39 36 33 30 31 33 32 33 35 35 32 32 31 33 32 33 30 32 28 27 24 24 21 17 20 22
91 100 101 98 94 91 89 87 85 82 78 73 70 65 61 57 54 51 48 47 46 43 40 39 37 37 37 36 34 36 35 35 34 34 34 33 35 33 33 32 33 28 26 21 17 17 22
87 94 101 102 99 95 91 88 87 85 82 78 73 70 67 63 60 58 56 53 49 45 43 43 41 41 41 41 40 39 39 38 37 37 39 37 37 38 37 35 34 33 31 26 22 16 20
81 90 97 103 102 99 95 91 90 88 85 81 77 74 72 68 67 65 62 60 57 52 49 48 48 47 46 48 48 46 45 40 40 43 44 42 41 40 39 39 35 31 31 31 27 21 22
69 84 93 99 105 103 99 97 91 92 89 86 80 78 76 73 71 69 66 64 61 58 54 54 52 51 49 51 53 50 49 45 44 46 47 47 43 42 40 40 39 32 32 35 30 26 25
58 73 86 95 100 105 104 100 97 93 93 90 86 81 79 77 74 71 69 67 65 62 59 58 57 56 55 58 57 53 50 52 52 51 52 51 49 45 41 41 39 34 36 32 32 31 29
49 62 75 88 95 100 105 104 101 97 94 93 91 87 82 81 77 74 72 70 67 65 63 62 62 60 62 63 58 54 52 53 52 53 55 55 56 52 46 42 40 40 39 38 32 31 33
42 55 66 77 88 95 99 104 103 101 98 94 93 92 88 85 81 79 76 74 72 68 67 64 64 64 66 63 58 55 54 56 58 57 58 58 56 50 48 47 45 40 42 41 37 34 36
39 49 59 68 79 87 90 95 102 102 100 96 93 93 92 90 86 82 81 79 75 73 71 69 68 68 66 65 63 61 61 60 62 62 62 61 59 53 49 47 46 43 45 43 38 41 41
36 45 55 63 70 78 85 89 92 99 100 98 95 93 92 91 89 87 84 82 80 77 75 73 72 69 68 68 66 65 64 64 65 65 63 63 62 56 52 48 45 46 47 46 43 46 45
35 42 51 59 66 72 77 82 86 88 95 97 95 93 90 87 85 84 83 80 78 78 77 76 75 72 68 67 67 69 68 68 68 68 68 65 60 58 56 52 52 51 50 49 48 44 45
34 40 49 57 63 67 72 76 78 81 85 89 91 90 89 87 86 83 82 81 80 78 77 78 77 75 73 72 71 71 70 70 69 68 69 63 60 59 59 61 53 49 52 49 43 42 42
Wind_Direction
216 211 214 215 213 212 210 209 209 209 210 210 212 215 219 221 224 228 232 237 241 245 252 256 260 264 271 273 274 277 285 291 298 301 299 299 299 293 300 300 299 301 305 310 319 315 302
215 213 211 214 218 218 216 214 212 214 216 216 216 218 218 221 225 229 233 238 243 247 250 253 258 261 269 273 277 281 286 294 300 298 298 303 296 293 297 296 297 302 298 302 314 307 281
217 215 214 213 214 217 220 220 220 219 221 222 224 226 228 229 228 231 233 238 242 245 249 252 255 261 269 275 279 285 291 294 296 297 299 299 293 294 296 295 297 294 298 296 284 283 256
215 217 217 217 218 218 219 221 222 224 225 224 227 228 230 233 233 236 237 242 243 245 251 253 260 264 268 276 283 286 290 291 294 297 300 296 292 297 300 299 295 297 307 296 269 249 245
216 216 218 218 219 220 221 221 222 225 227 227 228 232 236 234 237 237 239 242 244 245 251 252 257 264 272 280 286 288 289 290 292 296 297 298 297 297 299 304 301 294 302 300 262 250 256
217 216 217 218 219 220 221 222 223 224 225 228 230 232 232 233 234 235 238 240 244 245 250 257 263 268 275 279 285 288 288 292 298 302 305 303 298 294 299 305 310 301 311 308 298 274 256
216 217 216 217 219 220 222 222 223 225 227 228 227 228 230 232 235 236 237 240 243 246 252 258 263 267 271 278 281 282 288 295 300 304 306 306 303 299 300 302 312 311 305 301 286 277 266
216 216 216 216 218 220 221 222 223 224 227 228 228 228 228 231 235 237 239 240 242 246 250 256 260 267 272 271 274 281 287 294 300 301 303 306 304 304 303 291 298 308 294 292 284 261 246
216 215 216 216 216 219 220 221 222 224 225 227 227 228 230 233 237 240 242 240 240 243 246 253 260 262 262 266 270 277 283 289 295 298 300 309 306 299 304 293 288 294 294 294 282 266 234
216 214 214 216 217 218 220 221 220 221 223 224 225 227 230 233 235 238 238 236 236 240 244 247 247 249 255 261 268 275 279 290 297 297 301 318 313 312 301 291 289 289 294 297 287 271 230
215 216 214 214 216 219 220 221 219 218 219 221 222 223 225 229 231 232 230 226 228 231 231 233 242 245 250 255 267 276 283 292 295 297 304 309 310 317 309 288 293 285 285 291 291 287 253
217 216 216 215 215 217 219 220 221 216 216 217 218 218 220 224 226 227 225 223 225 225 228 231 238 251 249 259 268 278 285 293 300 304 314 312 307 314 326 307 291 283 278 282 296 296 281
218 217 217 217 215 216 218 220 221 219 215 213 214 212 216 219 222 223 223 222 222 223 227 231 240 245 255 260 267 272 278 288 301 312 323 319 318 322 322 324 293 279 282 280 281 280 264
217 218 217 217 217 217 218 218 219 221 218 215 215 214 216 217 219 219 220 220 223 226 229 232 240 249 255 257 259 260 271 282 294 306 316 318 318 320 317 321 297 290 278 276 273 282 277
218 218 219 218 217 217 218 218 218 220 222 217 219 217 216 217 218 221 224 226 226 226 232 235 241 248 251 247 248 256 267 277 286 299 307 307 310 312 307 304 293 285 287 274 268 264 255
217 218 219 219 218 217 217 218 218 219 221 220 219 218 217 218 219 221 224 228 227 229 234 238 236 240 238 241 249 258 267 280 291 300 301 303 307 306 306 305 301 301 287 283 265 258 254
216 217 218 219 218 217 216 218 219 219 219 221 222 218 217 221 222 224 226 227 227 231 235 236 233 237 241 247 257 266 274 282 289 296 297 306 302 301 302 301 297 292 288 279 271 261 261
216 216 217 218 219 217 217 218 219 220 219 220 222 222 219 221 223 223 227 229 228 227 232 235 235 244 248 254 261 268 276 281 288 291 296 307 304 302 299 293 287 288 290 297 295 262 259
216 216 216 217 218 219 218 217 217 220 219 220 221 223 223 221 222 224 227 228 225 225 230 239 243 248 258 261 262 269 273 275 280 288 295 305 304 302 296 297 294 288 286 292 287 269 253
216 216 216 216 218 218 219 218 217 218 219 220 221 223 225 226 226 228 229 231 231 231 233 240 245 250 257 262 267 271 274 276 281 287 293 301 302 301 299 298 296 292 291 289 288 267 244
218 216 216 216 218 218 218 219 217 218 219 219 222 224 225 227 230 232 233 235 236 235 236 238 244 250 257 262 264 268 271 278 283 287 291 297 300 297 296 297 298 299 286 281 280 276 251
220 217 216 216 216 218 218 218 219 219 219 220 221 222 226 227 230 233 235 238 240 239 239 243 245 249 253 258 262 269 273 277 282 285 289 294 295 296 293 297 300 301 298 283 274 271 262
224 219 217 217 216 217 217 218 220 220 220 220 222 224 224 226 228 231 234 238 241 242 243 245 248 250 253 256 259 265 271 276 280 285 289 290 292 293 291 292 303 291 283 286 280 269 266
225 220 218 217 217 217 218 218 218 221 222 222 223 224 225 227 229 232 234 238 241 243 245 247 249 251 253 256 260 264 268 272 278 284 286 288 291 291 289 293 305 289 285 284 277 273 266
223 221 218 217 217 218 218 218 219 221 222 223 224 225 226 228 230 233 236 239 241 244 245 247 250 251 255 259 262 264 266 269 275 279 282 285 286 284 288 292 299 290 278 280 280 267 263
224 219 217 217 217 218 218 218 219 220 221 222 225 226 227 229 231 234 238 241 244 245 247 248 249 252 255 259 261 264 267 272 274 277 280 285 283 282 284 292 296 290 279 275 277 277 265
226 217 216 215 216 217 217 218 219 220 221 222 224 226 228 230 232 235 238 240 243 245 246 247 249 252 254 258 262 265 267 270 272 275 277 280 284 282 284 290 291 285 277 273 276 271 266
227 219 214 213 214 215 216 217 219 220 220 222 223 226 228 230 233 235 238 240 241 243 245 248 249 252 254 256 259 262 265 268 271 274 277 280 281 281 283 287 288 281 278 275 274 268 261
225 221 214 211 212 213 215 215 216 218 218 220 222 225 227 230 231 234 236 239 242 244 246 248 250 253 255 257 259 263 266 268 270 274 278 279 278 279 284 284 281 277 277 274 275 262 258
Height
10871 10877 10885 10892 10898 10904 10909 10914 10920 10924 10929 10934 10938 10942 10947 10951 10955 10958 10961 10964 10967 10969 10971 10972 10973 10974 10975 10975 10976 10977 10976 10976 10976 10975 10973 10971 10967 10962 10961 10959 10957 10956 10954 10953 10953 10952 10950
10862 10869 10876 10883 10890 10896 10902 10907 10913 10918 10923 10928 10933 10937 10941 10946 10950 10953 10956 10959 10962 10964 10966 10967 10968 10970 10970 10970 10971 10972 10972 10972 10972 10970 10968 10967 10961 10957 10958 10956 10953 10954 10951 10951 10952 10951 10950
10853 10860 10867 10874 10881 10887 10894 10900 10906 10911 10916 10921 10926 10931 10936 10940 10944 10947 10950 10953 10956 10958 10961 10962 10963 10965 10966 10966 10967 10967 10968 10967 10966 10964 10964 10962 10956 10953 10954 10951 10950 10949 10949 10949 10950 10951 10949
10844 10851 10858 10865 10872 10879 10885 10891 10897 10902 10908 10914 10919 10924 10929 10934 10937 10941 10944 10947 10949 10952 10955 10958 10958 10960 10961 10962 10963 10963 10963 10962 10960 10959 10959 10957 10952 10950 10951 10949 10947 10946 10946 10946 10947 10949 10948
10834 10841 10848 10855 10862 10869 10876 10882 10888 10894 10900 10906 10911 10916 10922 10927 10930 10933 10937 10940 10943 10947 10950 10951 10953 10955 10957 10958 10958 10958 10958 10957 10956 10954 10953 10953 10950 10947 10948 10946 10945 10944 10944 10943 10944 10946 10945
10824 10832 10839 10846 10853 10860 10867 10874 10880 10886 10891 10898 10903 10909 10914 10919 10922 10925 10929 10933 10937 10941 10943 10946 10949 10950 10952 10954 10954 10954 10953 10952 10951 10949 10948 10948 10947 10945 10945 10943 10943 10942 10942 10940 10941 10942 10942
10813 10822 10830 10837 10843 10850 10858 10865 10871 10878 10884 10891 10896 10901 10908 10912 10915 10919 10923 10927 10932 10936 10939 10942 10944 10945 10946 10949 10949 10949 10948 10948 10947 10944 10944 10943 10942 10942 10942 10940 10941 10940 10939 10938 10938 10939 10938
10802 10811 10820 10828 10835 10841 10848 10856 10863 10869 10876 10883 10889 10894 10900 10904 10908 10912 10916 10921 10926 10930 10934 10936 10938 10940 10942 10943 10944 10944 10944 10944 10943 10941 10939 10939 10937 10937 10939 10937 10938 10938 10935 10934 10935 10937 10936
10789 10800 10809 10818 10826 10833 10840 10846 10853 10860 10867 10874 10881 10886 10892 10896 10900 10904 10909 10914 10918 10922 10927 10930 10932 10935 10938 10939 10939 10940 10940 10940 10940 10938 10936 10936 10934 10933 10935 10934 10935 10935 10933 10932 10933 10933 10934
10776 10787 10797 10807 10816 10824 10831 10838 10845 10852 10858 10865 10872 10878 10884 10887 10892 10897 10901 10906 10910 10915 10921 10925 10927 10930 10933 10933 10934 10936 10935 10936 10936 10935 10934 10933 10930 10930 10931 10930 10931 10930 10930 10929 10930 10930 10931
10762 10774 10785 10795 10805 10814 10823 10830 10837 10843 10849 10856 10864 10870 10875 10879 10884 10890 10895 10900 10904 10909 10915 10919 10921 10925 10928 10929 10930 10931 10933 10932 10932 10931 10931 10930 10927 10927 10927 10926 10927 10926 10926 10926 10927 10927 10928
10748 10761 10773 10783 10794 10804 10812 10821 10829 10835 10841 10848 10855 10862 10867 10871 10877 10884 10889 10894 10899 10904 10910 10914 10916 10918 10924 10925 10926 10928 10928 10928 10928 10927 10927 10925 10923 10924 10923 10923 10924 10922 10922 10922 10921 10924 10924
10733 10747 10759 10771 10781 10792 10802 10811 10820 10827 10834 10841 10846 10854 10859 10865 10870 10877 10883 10889 10894 10899 10904 10909 10911 10914 10918 10921 10922 10923 10923 10924 10923 10923 10923 10921 10919 10919 10919 10919 10919 10919 10918 10918 10919 10920 10920
10718 10732 10745 10757 10768 10780 10791 10801 10810 10818 10826 10833 10838 10846 10852 10858 10864 10870 10876 10883 10888 10894 10899 10903 10906 10909 10913 10915 10917 10917 10918 10919 10919 10919 10919 10918 10916 10915 10913 10915 10914 10913 10915 10916 10915 10917 10917
10702 10716 10729 10742 10754 10766 10778 10789 10799 10808 10816 10825 10830 10838 10845 10851 10858 10864 10870 10875 10883 10888 10893 10897 10901 10903 10907 10909 10911 10912 10913 10914 10915 10915 10914 10913 10912 10911 10909 10909 10910 10908 10910 10911 10913 10913 10913
10684 10699 10713 10726 10739 10751 10764 10777 10787 10796 10806 10816 10821 10830 10837 10843 10850 10857 10863 10868 10875 10882 10886 10891 10895 10897 10900 10903 10904 10905 10907 10909 10910 10910 10908 10907 10907 10906 10905 10905 10906 10905 10905 10906 10907 10908 10909
10664 10680 10695 10709 10722 10736 10750 10763 10775 10784 10794 10804 10812 10821 10829 10835 10842 10849 10854 10861 10869 10876 10880 10885 10889 10891 10893 10896 10898 10899 10900 10903 10903 10904 10901 10901 10899 10900 10898 10898 10899 10899 10898 10898 10901 10901 10903
10644 10660 10676 10691 10705 10719 10734 10748 10761 10770 10782 10792 10801 10811 10819 10826 10833 10839 10846 10854 10862 10868 10872 10877 10882 10883 10885 10890 10892 10892 10894 10895 10895 10895 10894 10894 10892 10893 10891 10891 10891 10892 10892 10895 10896 10896 10897
10624 10639 10657 10673 10687 10702 10717 10731 10745 10755 10768 10780 10789 10799 10808 10817 10824 10831 10838 10843 10850 10858 10865 10868 10873 10876 10878 10881 10884 10884 10886 10887 10888 10888 10888 10889 10886 10886 10885 10884 10883 10885 10885 10888 10890 10891 10892
10606 10620 10637 10653 10668 10684 10700 10714 10728 10740 10753 10766 10777 10788 10796 10806 10813 10820 10826 10833 10842 10852 10858 10861 10865 10868 10871 10871 10874 10876 10876 10878 10880 10882 10881 10883 10881 10878 10877 10877 10877 10878 10881 10882 10884 10885 10885
10589 10602 10618 10632 10649 10666 10682 10697 10712 10724 10738 10752 10764 10775 10782 10794 10800 10808 10815 10823 10831 10841 10848 10852 10856 10859 10862 10862 10862 10865 10868 10871 10873 10873 10873 10875 10874 10872 10868 10868 10870 10872 10872 10873 10875 10879 10879
10572 10584 10599 10613 10630 10647 10664 10677 10695 10709 10722 10737 10749 10760 10769 10779 10787 10796 10805 10811 10820 10829 10838 10842 10847 10851 10854 10853 10852 10856 10859 10863 10865 10864 10864 10865 10865 10863 10861 10860 10861 10863 10862 10862 10864 10867 10870
10558 10568 10581 10596 10611 10628 10644 10662 10678 10692 10706 10719 10733 10745 10755 10764 10775 10784 10792 10798 10807 10817 10826 10830 10835 10841 10844 10842 10845 10851 10853 10853 10855 10855 10853 10853 10853 10854 10853 10853 10854 10854 10851 10853 10854 10856 10858
10543 10553 10564 10577 10593 10608 10625 10643 10659 10675 10690 10705 10718 10730 10741 10750 10761 10770 10780 10786 10795 10804 10812 10818 10822 10828 10829 10830 10837 10842 10845 10846 10845 10844 10841 10841 10840 10839 10842 10844 10846 10843 10841 10841 10844 10845 10847
10529 10537 10548 10562 10576 10590 10607 10625 10641 10657 10672 10688 10702 10714 10726 10735 10748 10757 10766 10773 10782 10791 10797 10804 10810 10813 10815 10821 10827 10831 10834 10835 10835 10833 10832 10831 10832 10834 10833 10832 10836 10835 10830 10830 10832 10833 10832
10516 10523 10533 10546 10560 10576 10593 10607 10623 10640 10655 10670 10685 10697 10710 10721 10734 10744 10753 10760 10768 10776 10783 10790 10795 10800 10805 10808 10814 10818 10821 10822 10822 10821 10821 10820 10819 10821 10823 10824 10825 10823 10818 10818 10820 10819 10818
10504 10510 10519 10531 10545 10560 10576 10591 10606 10623 10638 10653 10669 10681 10695 10708 10719 10729 10738 10746 10753 10761 10768 10774 10782 10788 10793 10797 10801 10805 10806 10808 10808 10808 10808 10807 10807 10808 10810 10812 10813 10810 10805 10805 10806 10803 10804
10494 10499 10507 10517 10531 10545 10560 10575 10591 10606 10621 10637 10653 10666 10679 10693 10705 10714 10722 10730 10738 10745 10753 10760 10766 10775 10782 10787 10789 10788 10791 10793 10794 10793 10793 10796 10795 10794 10795 10798 10798 10794 10792 10791 10788 10791 10791
10482 10488 10496 10505 10517 10532 10547 10562 10577 10592 10606 10622 10638 10651 10664 10677 10690 10700 10707 10714 10721 10731 10738 10744 10753 10761 10768 10771 10774 10776 10778 10778 10777 10777 10776 10780 10780 10782 10782 10778 10780 10781 10778 10778 10779 10781 10782